Kezdőlap
METAR-TAF:

METAR-TAF

Repülőterek :

Appleton Municipal Airport

Appleton, Minnesota, Amerikai Egyesült Államok

földrajzi szélesség: 45-13-39N, földrajzi hosszúság: 096-00-15W, magasság: 310 m

Jelenlegi meteorológiai megfigyelések

A jelentés 9 perccel ezelõtt készült, 12:33 UTC
Déli szél 4 kt
Hőmérséklet -13°C
Páratartalom 78%
Légköri nyomás 1026 hPa
Látótávolság: 16.1 km

METAR: KAQP 081233Z AUTO 18004KT 10SM M13/M16 A3030 RMK AO2 TSNO

Idő: 06:42 (12:42 UTC)


TAF: hiányzik

Meteorológiai megfigyelések és előrejelzések több, mint 4000 repülőtéren (METAR és TAF jelentéseket).

A térképen piros és sárga pontok jelzik az elérhető meteorológiai állomásokat.

Mozgassa az egeret a pont fölött, hogy megjelenjen az állomás neve.

Azután kattintson az időjárási megfigyelések és előrejelzések megtekintéséhez.

A térkép megváltoztatása: kattintson a fekete keresztel jelölt zöld gombra ráközelítéshez, a vonallal jelölt zöld gombra távolításhoz, vagy a zöld nyilakra a szomszédos térképek eléréséhez.


METAR-TAF: